When you browse on this site, cookies collect data to enhance your experience and personalize the content and advertising you see.
Visit our Privacy Policy to learn more. By continuing to use the site, you agree to this use of cookies and data.
  • In Schweiz
  • Länderverzeichnis
  • Für 7 Tage
  • Wassertemperatur
  • Wetterkarte
  • Widgets
  • user-avatar
    Anmelden

    Stündliche Wetter Armawir

    Heute, 7 Juni, Sonntag

    Zeit Temperatur Niederschläge Wind Luftdruck Luftfeuchtigkeit
    00:00 +18°C° 0 mm 2 m/S 691 mmHg 42%
    01:00 +17°C° 0 mm 2 m/S 690 mmHg 44%
    02:00 +16°C° 0 mm 1 m/S 690 mmHg 46%
    03:00 +15°C° 0 mm 1 m/S 689 mmHg 48%
    04:00 +16°C° 0 mm 1 m/S 690 mmHg 48%
    05:00 +19°C° 0 mm 1 m/S 690 mmHg 48%
    06:00 +20°C° 0 mm 1 m/S 691 mmHg 48%
    07:00 +21°C° 0 mm 1 m/S 691 mmHg 42%
    08:00 +23°C° 0 mm 1 m/S 691 mmHg 37%
    09:00 +25°C° 0 mm 1 m/S 691 mmHg 32%
    10:00 +26°C° 0 mm 1 m/S 690 mmHg 29%
    11:00 +28°C° 0 mm 1 m/S 690 mmHg 26%
    12:00 +29°C° 0 mm 2 m/S 690 mmHg 22%
    13:00 +30°C° 0 mm 2 m/S 690 mmHg 21%
    14:00 +31°C° 0 mm 2 m/S 690 mmHg 19%
    15:00 +31°C° 0 mm 2 m/S 689 mmHg 17%
    16:00 +31°C° 0 mm 2 m/S 689 mmHg 20%
    17:00 +31°C° 0 mm 2 m/S 689 mmHg 22%
    18:00 +30°C° 0 mm 1 m/S 689 mmHg 24%
    19:00 +27°C° 0 mm 1 m/S 688 mmHg 28%
    20:00 +25°C° 0 mm 1 m/S 688 mmHg 31%
    21:00 +22°C° 0 mm 1 m/S 688 mmHg 35%
    22:00 +21°C° 0 mm 1 m/S 688 mmHg 39%
    23:00 +21°C° 0 mm 1 m/S 688 mmHg 42%

    Morgen, 8 Juni, Montag

    Zeit Temperatur Niederschläge Wind Luftdruck Luftfeuchtigkeit
    00:00 +20°C° 0 mm 1 m/S 688 mmHg 46%
    01:00 +19°C° 0 mm 1 m/S 688 mmHg 50%
    02:00 +19°C° 0 mm 1 m/S 688 mmHg 54%
    03:00 +18°C° 0 mm 1 m/S 687 mmHg 58%
    04:00 +19°C° 0 mm 1 m/S 687 mmHg 58%
    05:00 +20°C° 0 mm 1 m/S 688 mmHg 58%
    06:00 +20°C° 0 mm 2 m/S 688 mmHg 58%
    07:00 +23°C° 0 mm 1 m/S 688 mmHg 52%
    08:00 +25°C° 0 mm 1 m/S 688 mmHg 45%
    09:00 +27°C° 0 mm 1 m/S 688 mmHg 39%
    10:00 +28°C° 0 mm 1 m/S 688 mmHg 35%
    11:00 +29°C° 0 mm 2 m/S 688 mmHg 31%
    12:00 +31°C° 0 mm 2 m/S 688 mmHg 27%
    13:00 +31°C° 0 mm 2 m/S 688 mmHg 24%
    14:00 +32°C° 0 mm 2 m/S 688 mmHg 21%
    15:00 +34°C° 0 mm 2 m/S 687 mmHg 18%
    16:00 +32°C° 0 mm 2 m/S 687 mmHg 21%
    17:00 +32°C° 0 mm 2 m/S 687 mmHg 24%
    18:00 +31°C° 0 mm 2 m/S 687 mmHg 27%
    19:00 +29°C° 0 mm 2 m/S 687 mmHg 33%
    20:00 +26°C° 0 mm 2 m/S 687 mmHg 39%
    21:00 +24°C° 0 mm 3 m/S 687 mmHg 46%
    22:00 +23°C° 0 mm 2 m/S 687 mmHg 49%
    23:00 +21°C° 0 mm 2 m/S 687 mmHg 53%

    übermorgen, 9 Juni, Dienstag

    Zeit Temperatur Niederschläge Wind Luftdruck Luftfeuchtigkeit
    00:00 +20°C° 0 mm 2 m/S 687 mmHg 56%
    01:00 +19°C° 0 mm 2 m/S 687 mmHg 59%
    02:00 +19°C° 0 mm 2 m/S 686 mmHg 61%
    03:00 +18°C° 0 mm 2 m/S 686 mmHg 64%
    04:00 +19°C° 0 mm 2 m/S 687 mmHg 61%
    05:00 +20°C° 0 mm 2 m/S 687 mmHg 59%
    06:00 +22°C° 0 mm 1 m/S 687 mmHg 56%
    07:00 +23°C° 0 mm 1 m/S 688 mmHg 51%
    08:00 +25°C° 0 mm 1 m/S 688 mmHg 46%
    09:00 +27°C° 0 mm 1 m/S 688 mmHg 41%
    10:00 +29°C° 0 mm 1 m/S 688 mmHg 36%
    11:00 +30°C° 0 mm 1 m/S 688 mmHg 32%
    12:00 +32°C° 0 mm 1 m/S 688 mmHg 28%
    13:00 +32°C° 0 mm 2 m/S 688 mmHg 26%
    14:00 +34°C° 0 mm 2 m/S 688 mmHg 24%
    15:00 +35°C° 0 mm 2 m/S 688 mmHg 22%
    16:00 +31°C° 0.1 mm 3 m/S 687 mmHg 29%
    17:00 +29°C° 0.1 mm 4 m/S 687 mmHg 36%
    18:00 +27°C° 0.1 mm 6 m/S 687 mmHg 43%
    19:00 +25°C° 0.1 mm 4 m/S 687 mmHg 46%
    20:00 +24°C° 0.1 mm 3 m/S 688 mmHg 48%
    21:00 +22°C° 0.1 mm 1 m/S 688 mmHg 51%
    22:00 +21°C° 0.3 mm 1 m/S 688 mmHg 55%
    23:00 +21°C° 0.3 mm 1 m/S 688 mmHg 58%

    10 Juni, Mittwoch

    Zeit Temperatur Niederschläge Wind Luftdruck Luftfeuchtigkeit
    00:00 +20°C° 0.3 mm 1 m/S 688 mmHg 62%
    01:00 +20°C° 0 mm 1 m/S 688 mmHg 64%
    02:00 +19°C° 0 mm 1 m/S 688 mmHg 65%
    03:00 +19°C° 0 mm 1 m/S 687 mmHg 67%
    04:00 +20°C° 0 mm 1 m/S 688 mmHg 64%
    05:00 +21°C° 0 mm 1 m/S 688 mmHg 62%
    06:00 +22°C° 0 mm 1 m/S 688 mmHg 60%
    07:00 +24°C° 0 mm 1 m/S 688 mmHg 54%
    08:00 +25°C° 0 mm 1 m/S 688 mmHg 48%
    09:00 +27°C° 0 mm 1 m/S 688 mmHg 42%
    10:00 +28°C° 0 mm 1 m/S 688 mmHg 38%
    11:00 +30°C° 0 mm 2 m/S 688 mmHg 35%
    12:00 +31°C° 0 mm 2 m/S 689 mmHg 31%
    13:00 +32°C° 0 mm 2 m/S 688 mmHg 28%
    14:00 +34°C° 0 mm 3 m/S 688 mmHg 26%
    15:00 +35°C° 0 mm 3 m/S 688 mmHg 24%
    16:00 +33°C° 0.2 mm 5 m/S 688 mmHg 29%
    17:00 +32°C° 0.2 mm 7 m/S 688 mmHg 34%
    18:00 +29°C° 0.2 mm 8 m/S 688 mmHg 39%
    19:00 +27°C° 0.8 mm 6 m/S 688 mmHg 46%
    20:00 +23°C° 0.8 mm 4 m/S 688 mmHg 54%
    21:00 +22°C° 0.8 mm 1 m/S 688 mmHg 62%
    22:00 +22°C° 0 mm 1 m/S 688 mmHg 64%
    23:00 +21°C° 0 mm 1 m/S 688 mmHg 66%

    11 Juni, Donnerstag

    Zeit Temperatur Niederschläge Wind Luftdruck Luftfeuchtigkeit
    00:00 +20°C° 0 mm 1 m/S 687 mmHg 68%
    01:00 +20°C° 0 mm 1 m/S 687 mmHg 68%
    02:00 +20°C° 0 mm 1 m/S 686 mmHg 69%
    03:00 +19°C° 0 mm 1 m/S 686 mmHg 69%
    04:00 +20°C° 0 mm 1 m/S 686 mmHg 67%
    05:00 +21°C° 0 mm 1 m/S 686 mmHg 64%
    06:00 +22°C° 0 mm 1 m/S 686 mmHg 62%
    07:00 +23°C° 0 mm 1 m/S 686 mmHg 56%
    08:00 +25°C° 0 mm 1 m/S 686 mmHg 50%
    09:00 +27°C° 0 mm 1 m/S 686 mmHg 44%
    10:00 +28°C° 0 mm 1 m/S 686 mmHg 40%
    11:00 +30°C° 0 mm 2 m/S 686 mmHg 36%
    12:00 +31°C° 0 mm 2 m/S 686 mmHg 32%
    13:00 +32°C° 0 mm 2 m/S 686 mmHg 30%
    14:00 +33°C° 0 mm 1 m/S 685 mmHg 28%
    15:00 +34°C° 0 mm 1 m/S 685 mmHg 26%
    16:00 +30°C° 0.7 mm 3 m/S 685 mmHg 38%
    17:00 +26°C° 0.7 mm 5 m/S 684 mmHg 51%
    18:00 +22°C° 0.7 mm 8 m/S 684 mmHg 64%
    19:00 +21°C° 0 mm 5 m/S 684 mmHg 66%
    20:00 +20°C° 0 mm 3 m/S 685 mmHg 69%
    21:00 +20°C° 0 mm 1 m/S 685 mmHg 71%
    22:00 +20°C° 0 mm 1 m/S 685 mmHg 70%
    23:00 +20°C° 0 mm 1 m/S 685 mmHg 68%

    12 Juni, Freitag

    Zeit Temperatur Niederschläge Wind Luftdruck Luftfeuchtigkeit
    00:00 +20°C° 0 mm 1 m/S 684 mmHg 66%
    01:00 +20°C° 0 mm 1 m/S 684 mmHg 68%
    02:00 +19°C° 0 mm 1 m/S 683 mmHg 69%
    03:00 +19°C° 0 mm 1 m/S 683 mmHg 70%
    04:00 +19°C° 0 mm 1 m/S 683 mmHg 68%
    05:00 +20°C° 0 mm 1 m/S 683 mmHg 65%
    06:00 +21°C° 0 mm 1 m/S 683 mmHg 63%
    07:00 +23°C° 0 mm 1 m/S 683 mmHg 57%
    08:00 +25°C° 0 mm 1 m/S 683 mmHg 51%
    09:00 +26°C° 0 mm 1 m/S 683 mmHg 46%
    10:00 +28°C° 0 mm 2 m/S 683 mmHg 41%
    11:00 +29°C° 0 mm 2 m/S 683 mmHg 37%
    12:00 +30°C° 0 mm 3 m/S 683 mmHg 32%
    13:00 +31°C° 0 mm 3 m/S 683 mmHg 31%
    14:00 +33°C° 0 mm 3 m/S 682 mmHg 29%
    15:00 +33°C° 0 mm 3 m/S 682 mmHg 27%
    16:00 +30°C° 0.1 mm 4 m/S 682 mmHg 33%
    17:00 +28°C° 0.1 mm 4 m/S 682 mmHg 38%
    18:00 +26°C° 0.1 mm 5 m/S 682 mmHg 44%
    19:00 +25°C° 0.2 mm 4 m/S 682 mmHg 50%
    20:00 +22°C° 0.2 mm 3 m/S 682 mmHg 57%
    21:00 +20°C° 0.2 mm 2 m/S 682 mmHg 63%
    22:00 +20°C° 0.1 mm 2 m/S 682 mmHg 64%
    23:00 +21°C° 0.1 mm 1 m/S 682 mmHg 65%
    Mehr zeigen